Date String (YYYY-MM-DD hh:mm:ss) UTC,Instrument flags,absolute air pressure of the measurement (hPa),sample flow rate (lpm),inlet stack bypass flow (lpm),air temperature of the measurement (°C),ambient temperature measured by the external sensor (°C),aerosol sample conditioner tube jacket temperature (°C),OPC LED temperature (°C),internal box temperature (°C),relative humidity of the measurement (%),span deviation,mass concentration of particles derived from Lorenz-Mie calculation of OPC scattering (μg/m³),mass concentration of particles derived from Lorenz-Mie calculation of OPC scattering (μg/m³),mass concentration of particles derived from Lorenz-Mie calculation of OPC scattering (μg/m³)
DateTimeUTC,F1_M11,P_M11,Q1_M11,Q2_M11,T1_M11,T2_M11,T3_M11,T4_M11,T5_M11,U1_M11,ZSPAN_M11,X0_M11,X2_M11,X1_M11
2023-12-01 06:00:00,SystemResetWarning,0822.0,5.00,000.00,020.7,019.7,000.0,029.0,021.9,14.8,0000.0,0012.41,0007.02,0006.30
2023-12-01 06:01:00,SystemResetWarning,0822.0,5.00,000.00,020.7,019.7,000.0,029.0,021.9,14.8,0000.0,0013.88,0007.06,0006.31
2023-12-01 06:02:00,SystemResetWarning,0822.0,5.00,000.00,020.7,019.7,000.0,029.0,021.9,14.8,0000.0,0013.40,0007.08,0006.32
2023-12-01 06:03:00,SystemResetWarning,0822.1,5.00,000.00,020.7,019.7,000.0,029.0,021.8,14.8,0000.0,0013.53,0007.12,0006.33
2023-12-01 06:04:00,SystemResetWarning,0822.0,5.00,000.00,020.6,019.7,000.0,029.0,021.9,14.8,0000.0,0014.22,0007.13,0006.34
2023-12-01 06:05:00,SystemResetWarning,0822.0,4.99,000.00,020.7,019.7,000.0,029.0,021.9,14.8,0000.0,0014.79,0007.17,0006.37
2023-12-01 06:06:00,SystemResetWarning,0822.0,4.99,000.00,020.7,019.7,000.0,029.0,021.9,14.8,0000.0,0015.18,0007.23,0006.39
2023-12-01 06:07:00,SystemResetWarning,0822.0,5.00,000.00,020.6,019.7,000.0,029.0,021.9,14.8,0000.0,0015.21,0007.27,0006.40
2023-12-01 06:08:00,SystemResetWarning,0822.0,5.01,000.00,020.6,019.7,000.0,029.0,021.9,14.9,0000.0,0014.73,0007.24,0006.41
2023-12-01 06:09:00,SystemResetWarning,0822.0,5.01,000.00,020.6,019.7,000.0,029.0,021.9,14.9,0000.0,0015.12,0007.24,0006.42
2023-12-01 06:10:00,SystemResetWarning,0822.0,5.01,000.00,020.6,019.7,000.0,029.0,021.9,14.9,0000.0,0015.07,0007.23,0006.41
2023-12-01 06:11:00,SystemResetWarning,0822.0,5.00,000.00,020.6,019.7,000.0,029.0,021.8,14.9,0000.0,0014.89,0007.22,0006.43
2023-12-01 06:12:00,SystemResetWarning,0822.0,4.99,000.00,020.6,019.7,000.0,029.0,021.8,14.9,0000.0,0013.64,0007.18,0006.45
2023-12-01 06:13:00,SystemResetWarning,0822.0,4.99,000.00,020.6,019.7,000.0,028.9,021.8,14.9,0000.4,0013.69,0007.16,0006.46
2023-12-01 06:14:00,SystemResetWarning,0822.0,5.00,000.00,020.6,019.7,000.0,028.9,021.8,14.8,0000.8,0013.72,0007.13,0006.49
2023-12-01 06:15:00,SystemResetWarning,0822.0,5.00,000.00,020.6,019.6,000.0,028.9,021.8,14.9,0001.5,0013.02,0007.11,0006.51
2023-12-01 06:16:00,SystemResetWarning,0822.0,5.01,000.00,020.6,019.6,000.0,028.9,021.8,14.9,0001.7,0012.36,0007.11,0006.53
2023-12-01 06:17:00,SystemResetWarning,0821.9,5.01,000.00,020.6,019.7,000.0,028.9,021.8,14.9,0001.1,0011.90,0007.07,0006.55
2023-12-01 06:18:00,SystemResetWarning,0822.0,5.00,000.00,020.6,019.7,000.0,028.9,021.8,14.9,0001.4,0011.89,0007.06,0006.56
2023-12-01 06:19:00,SystemResetWarning,0822.0,4.99,000.00,020.6,019.7,000.0,028.9,021.8,14.9,0001.6,0011.72,0007.05,0006.58
2023-12-01 06:20:00,SystemResetWarning,0822.0,4.99,000.00,020.6,019.7,000.0,028.9,021.8,14.9,0001.7,0011.89,0007.08,0006.60
2023-12-01 06:21:00,SystemResetWarning,0821.9,5.00,000.00,020.6,019.7,000.0,028.9,021.9,14.9,0001.6,0011.84,0007.10,0006.63
2023-12-01 06:22:00,SystemResetWarning,0822.0,5.01,000.00,020.6,019.7,000.0,028.9,021.8,14.9,0002.1,0012.07,0007.13,0006.63
2023-12-01 06:23:00,SystemResetWarning,0822.0,5.01,000.00,020.6,019.7,000.0,028.9,021.8,14.9,0002.2,0012.10,0007.15,0006.64
2023-12-01 06:24:00,SystemResetWarning,0822.0,5.01,000.00,020.6,019.6,000.0,028.9,021.8,14.9,0001.9,0011.35,0007.19,0006.65
2023-12-01 06:25:00,SystemResetWarning,0822.0,5.00,000.00,020.6,019.6,000.0,028.9,021.8,14.9,0002.1,0011.57,0007.22,0006.66
2023-12-01 06:26:00,SystemResetWarning,0822.0,4.99,000.00,020.6,019.6,000.0,028.9,021.8,14.9,0001.8,0011.64,0007.24,0006.66
2023-12-01 06:27:00,SystemResetWarning,0822.0,5.00,000.00,020.6,019.6,000.0,028.9,021.8,14.9,0000.0,0012.28,0007.26,0006.66
2023-12-01 06:28:00,SystemResetWarning,0822.0,5.00,000.00,020.6,019.6,000.0,028.9,021.8,14.9,0000.0,0012.38,0007.27,0006.66
2023-12-01 06:29:00,SystemResetWarning,0822.0,4.99,000.00,020.6,019.6,000.0,028.9,021.8,14.9,0000.0,0012.46,0007.28,0006.66
2023-12-01 06:30:00,SystemResetWarning,0822.0,4.99,000.00,020.6,019.6,000.0,028.9,021.8,14.9,0000.0,0012.74,0007.33,0006.66
2023-12-01 06:31:00,SystemResetWarning,0822.0,5.00,000.00,020.6,019.6,000.0,028.9,021.8,14.9,0000.0,0012.34,0007.35,0006.66
2023-12-01 06:32:00,SystemResetWarning,0822.0,5.00,000.00,020.6,019.6,000.0,028.9,021.8,14.9,0000.0,0012.42,0007.36,0006.65
2023-12-01 06:33:00,SystemResetWarning,0822.0,5.01,000.00,020.6,019.6,000.0,028.9,021.8,14.9,0000.0,0012.55,0007.38,0006.65
2023-12-01 06:34:00,SystemResetWarning,0821.9,5.01,000.00,020.6,019.6,000.0,028.9,021.8,14.9,0000.0,0012.63,0007.37,0006.65
2023-12-01 06:35:00,SystemResetWarning,0822.0,5.00,000.00,020.6,019.6,000.0,028.9,021.7,15.0,0000.0,0012.70,0007.38,0006.65
2023-12-01 06:36:00,SystemResetWarning,0821.9,4.99,000.00,020.5,019.6,000.0,028.9,021.7,15.0,0000.0,0012.43,0007.36,0006.66
2023-12-01 06:37:00,SystemResetWarning,0821.9,4.99,000.00,020.5,019.5,000.0,028.9,021.8,15.0,0000.0,0012.58,0007.38,0006.66
2023-12-01 06:38:00,SystemResetWarning,0821.9,5.01,000.00,020.5,019.5,000.0,028.9,021.7,15.0,0000.0,0012.38,0007.35,0006.66
2023-12-01 06:39:00,SystemResetWarning,0821.9,5.01,000.00,020.5,019.5,000.0,028.8,021.7,15.0,0000.0,0012.51,0007.34,0006.65
2023-12-01 06:40:00,SystemResetWarning,0822.0,5.01,000.00,020.5,019.5,000.0,028.8,021.7,15.0,0000.0,0012.53,0007.32,0006.63
2023-12-01 06:41:00,SystemResetWarning,0822.0,4.99,000.00,020.5,019.5,000.0,028.8,021.7,15.0,0000.0,0012.43,0007.31,0006.60
2023-12-01 06:42:00,SystemResetWarning,0821.9,4.99,000.00,020.5,019.5,000.0,028.8,021.7,15.0,0000.0,0012.44,0007.27,0006.57
2023-12-01 06:43:00,SystemResetWarning,0822.0,5.01,000.00,020.5,019.5,000.0,028.8,021.7,15.0,0002.3,0012.37,0007.24,0006.56
2023-12-01 06:44:00,SystemResetWarning,0822.0,5.00,000.00,020.5,019.5,000.0,028.8,021.7,15.0,0001.7,0012.22,0007.20,0006.54
2023-12-01 06:45:00,SystemResetWarning,0821.9,5.00,000.00,020.5,019.5,000.0,028.8,021.7,15.0,0000.9,0012.10,0007.18,0006.53
2023-12-01 06:46:00,SystemResetWarning,0821.9,5.01,000.00,020.5,019.5,000.0,028.8,021.7,15.0,0000.2,0012.06,0007.13,0006.50
2023-12-01 06:47:00,SystemResetWarning,0822.0,5.01,000.00,020.5,019.5,000.0,028.8,021.7,15.0,0000.0,0012.06,0007.13,0006.47
2023-12-01 06:48:00,SystemResetWarning,0822.0,5.00,000.00,020.5,019.5,000.0,028.8,021.7,15.0,0000.0,0011.84,0007.07,0006.44
2023-12-01 06:49:00,SystemResetWarning,0822.0,4.99,000.00,020.5,019.5,000.0,028.8,021.7,15.0,0000.0,0012.18,0007.07,0006.43
2023-12-01 06:50:00,SystemResetWarning,0821.9,4.99,000.00,020.5,019.5,000.0,028.8,021.7,15.0,0000.0,0011.93,0007.07,0006.43
2023-12-01 06:51:00,SystemResetWarning,0821.9,5.01,000.00,020.5,019.5,000.0,028.8,021.6,14.9,0000.0,0011.78,0007.08,0006.44
2023-12-01 06:52:00,SystemResetWarning,0822.0,5.01,000.00,020.4,019.5,000.0,028.8,021.6,14.9,0000.0,0011.82,0007.09,0006.45
2023-12-01 06:53:00,SystemResetWarning,0822.0,5.01,000.00,020.4,019.4,000.0,028.8,021.6,14.9,0000.0,0011.60,0007.10,0006.46
2023-12-01 06:54:00,SystemResetWarning,0822.0,4.99,000.00,020.4,019.4,000.0,028.8,021.6,15.0,0000.0,0011.51,0007.07,0006.45
2023-12-01 06:55:00,SystemResetWarning,0822.0,4.99,000.00,020.4,019.4,000.0,028.8,021.6,15.0,0000.0,0011.39,0007.05,0006.45
2023-12-01 06:56:00,SystemResetWarning,0822.0,5.00,000.00,020.4,019.4,000.0,028.8,021.7,15.0,0000.0,0012.14,0007.06,0006.43
2023-12-01 06:57:00,SystemResetWarning,0822.0,5.01,000.00,020.4,019.4,000.0,028.8,021.7,15.0,0000.0,0012.43,0007.07,0006.43
2023-12-01 06:58:00,SystemResetWarning,0822.0,5.01,000.00,020.4,019.4,000.0,028.7,021.6,15.0,0000.0,0012.52,0007.07,0006.43
2023-12-01 06:59:00,SystemResetWarning,0822.0,4.99,000.00,020.4,019.4,000.0,028.7,021.6,15.0,0000.0,0012.79,0007.13,0006.44
